Weather in Urgaza

Russia / Republic of Bashkortostan     52°20′40″N   58°37′08″E
temp.,
°C
wind,
m/s
gust,
m/s
humid.,
%
clouds,
%
prec.,
mm/h
press.,
hPa
HPBL,
m
28 february, sun
sun2823:00−8se2497100 1.1 1006108
02:00−8ne1297100 0.5 100526
05:00−8ne4696100 1.8 1003155
08:00−10nne4695100 0.6 1002135
11:00−9nne469598 1.0 1001187
14:00−8nne4695100 0.6 1001231
17:00−8nne4695100 1.1 1002224
20:00−9nne3695100 0.4 1005165
1 march, mon
mon123:00−11n2396100 0.4 100839
02:00−13n119698 0.1 101120
05:00−14ssw019799 0.2 101320
08:00−14nw019691 0.1 101427
11:00−12wsw019391 0.2 1016137
14:00−9wsw238897 0.0 1016385
17:00−8wsw359397 0.1 1017303
20:00−12w599087 0.1 1018234
2 march, tue
tue223:00−14wnw5108987 0.1 1019243
02:00−16wnw6118969 0.0 1019210
05:00−17wnw6119078 0.0 1018221
08:00−19w510929 0.0 1019169
11:00−16w59895 0.0 1018319
14:00−12wsw59850 0.0 1017436
17:00−13wsw510869 0.0 1016397
20:00−16sw5119287 0.0 1015285
3 march, wed
wed323:00−14sw6129094 0.0 1013409
02:00−11ssw51293100 0.1 1010497
05:00−7ssw61493100 0.3 1008637
08:00−5ssw71493100 0.1 1005725
11:00−3ssw81392100 0.4 1004916
14:00−2sw71191100 0.3 1002906
17:00−2sw61090100 0.3 1001617
20:00−5sw4794100 0.0 1001138
4 march, thu
thu423:00−6wsw4793100 0.0 1002130
02:00−7w4991100 0.0 1003195
05:00−10wnw51089100 0.0 1005172
08:00−11wnw61188100 0.0 1006215
11:00−7wnw61186100 0.0 1008453
14:00−4wnw478292 0.0 1009936
17:00−5w5108396 0.1 1011345
20:00−10w510870 0.0 1014172